Weather History for KETH - April, 2013

Change the Weather History Date:

Friday, April 12, 2013

  Actual Average Record
Temperature  
Mean Temperature 29 °F -  
Max Temperature 32 °F 54 °F 84 °F (1968)
Min Temperature 26 °F 32 °F 13 °F (1950)
Degree Days  
Heating Degree Days 36    
Moisture  
Dew Point 26 °F    
Average Humidity 90    
Maximum Humidity 100    
Minimum Humidity 80    
Precipitation  
Precipitation 0.00 in - - ()
Sea Level Pressure  
Sea Level Pressure 29.85 in    
Wind  
Wind Speed 9 mph (NW)    
Max Wind Speed 17 mph    
Max Gust Speed 24 mph    
Visibility 9 miles    
Events Rain , Snow    
Averages and records for this station are not official NWS values.
T = Trace of Precipitation, MM = Missing Value Source: NWS Daily Summary

Daily Weather History Graph

Daily Weather History Graph

Search for Another Location

Airport or City:

Trip Planner

Search our weather history database for the weather conditions in past years. The results will help you decide how hot, cold, wet, or windy it might be!

Date:

Astronomy

Apr. 12, 2013 Rise Set
Actual Time 6:45 AM CDT 8:09 PM CDT
Civil Twilight 6:14 AM CDT 8:40 PM CDT
Nautical Twilight 5:37 AM CDT 9:17 PM CDT
Astronomical Twilight 4:57 AM CDT 9:57 PM CDT
Moon 7:49 AM CDT (4/12) 10:49 PM CDT (4/12)
Length of Visible Light 14h 25m
Length of Day
13h 24m
Waxing Crescent, 5% of the Moon is Illuminated
Apr 12
Waxing Crescent
Apr 18
First Quarter
Apr 25
Full
May 2
Last Quarter
May 9
New

Hourly Weather History & Observations

Time (CDT) Temp. Windchill Dew Point Humidity Pressure Visibility Wind Dir Wind Speed Gust Speed Precip Events Conditions
12:14 AM 28.4 °F 21.2 °F 26.6 °F 93% 29.83 in 10.0 mi NNE 6.9 mph - N/A   Overcast
12:34 AM 28.4 °F 23.3 °F 24.8 °F 86% 29.83 in 10.0 mi North 4.6 mph - N/A   Overcast
12:54 AM 28.4 °F 22.2 °F 26.6 °F 93% 29.83 in 10.0 mi NNW 5.8 mph - N/A   Overcast
1:15 AM 28.4 °F 21.2 °F 26.6 °F 93% 29.83 in 10.0 mi NNW 6.9 mph - N/A   Overcast
1:34 AM 28.4 °F 23.3 °F 26.6 °F 93% 29.82 in 10.0 mi North 4.6 mph - N/A   Overcast
1:54 AM 28.4 °F 20.4 °F 26.6 °F 93% 29.82 in 10.0 mi NNW 8.1 mph - N/A   Overcast
2:15 AM 28.4 °F 20.4 °F 26.6 °F 93% 29.82 in 10.0 mi North 8.1 mph - N/A   Overcast
2:35 AM 28.4 °F 21.2 °F 26.6 °F 93% 29.81 in 10.0 mi North 6.9 mph - N/A   Overcast
2:55 AM 28.4 °F 21.2 °F 26.6 °F 93% 29.81 in 10.0 mi NNW 6.9 mph - N/A   Overcast
3:14 AM 28.4 °F 21.2 °F 26.6 °F 93% 29.81 in 10.0 mi NNW 6.9 mph - N/A   Overcast
3:34 AM 28.4 °F 21.2 °F 26.6 °F 93% 29.80 in 10.0 mi North 6.9 mph - N/A   Overcast
3:54 AM 28.4 °F 20.4 °F 26.6 °F 93% 29.80 in 10.0 mi North 8.1 mph - N/A   Overcast
4:14 AM 28.4 °F 21.2 °F 26.6 °F 93% 29.80 in 10.0 mi NNW 6.9 mph - N/A   Overcast
4:34 AM 28.4 °F 21.2 °F 26.6 °F 93% 29.81 in 10.0 mi NNW 6.9 mph - N/A   Overcast
4:55 AM 28.4 °F 21.2 °F 26.6 °F 93% 29.81 in 10.0 mi NNW 6.9 mph - N/A   Overcast
5:15 AM 28.4 °F 20.4 °F 26.6 °F 93% 29.81 in 10.0 mi NNW 8.1 mph - N/A   Overcast
5:34 AM 28.4 °F 20.4 °F 26.6 °F 93% 29.81 in 10.0 mi NNW 8.1 mph - N/A   Overcast
5:54 AM 26.6 °F 16.8 °F 26.6 °F 100% 29.81 in 10.0 mi NNW 10.4 mph - N/A   Overcast
6:14 AM 26.6 °F 17.5 °F 24.8 °F 93% 29.81 in 10.0 mi NNW 9.2 mph - N/A   Overcast
6:34 AM 26.6 °F 17.5 °F 24.8 °F 93% 29.81 in 10.0 mi NNW 9.2 mph - N/A   Overcast
6:55 AM 26.6 °F 17.5 °F 24.8 °F 93% 29.81 in 10.0 mi NNW 9.2 mph - N/A   Overcast
7:14 AM 26.6 °F 17.5 °F 24.8 °F 93% 29.81 in 10.0 mi NNW 9.2 mph - N/A   Overcast
7:34 AM 26.6 °F 17.5 °F 24.8 °F 93% 29.81 in 10.0 mi NNW 9.2 mph - N/A   Overcast
7:54 AM 26.6 °F 17.5 °F 24.8 °F 93% 29.82 in 10.0 mi NNW 9.2 mph - N/A   Overcast
8:14 AM 26.6 °F 17.5 °F 24.8 °F 93% 29.82 in 10.0 mi NNW 9.2 mph - N/A   Overcast
8:34 AM 26.6 °F 16.2 °F 24.8 °F 93% 29.82 in 10.0 mi NNW 11.5 mph - N/A   Overcast
8:54 AM 26.6 °F 16.8 °F 24.8 °F 93% 29.82 in 10.0 mi NNW 10.4 mph - N/A Snow Light Snow
9:14 AM 28.4 °F 19.1 °F 24.8 °F 86% 29.83 in 10.0 mi NNW 10.4 mph - N/A   Overcast
9:34 AM 28.4 °F 19.7 °F 26.6 °F 93% 29.83 in 10.0 mi NNW 9.2 mph - N/A   Overcast
9:54 AM 28.4 °F 18.5 °F 26.6 °F 93% 29.83 in 10.0 mi NNW 11.5 mph - N/A   Overcast
10:15 AM 28.4 °F 19.1 °F 26.6 °F 93% 29.83 in 10.0 mi NW 10.4 mph - N/A   Mostly Cloudy
10:34 AM 30.2 °F 20.8 °F 26.6 °F 86% 29.83 in 10.0 mi NNW 11.5 mph - N/A   Mostly Cloudy
10:54 AM 30.2 °F 20.2 °F 26.6 °F 86% 29.83 in 10.0 mi NNW 12.7 mph - N/A   Mostly Cloudy
11:15 AM 30.2 °F 20.8 °F 26.6 °F 86% 29.84 in 10.0 mi NNW 11.5 mph - N/A   Overcast
11:34 AM 30.2 °F 20.8 °F 26.6 °F 86% 29.85 in 10.0 mi NNW 11.5 mph - N/A   Overcast
11:54 AM 30.2 °F 20.8 °F 26.6 °F 86% 29.85 in 10.0 mi NNW 11.5 mph - N/A   Overcast
12:14 PM 30.2 °F 21.9 °F 26.6 °F 86% 29.85 in 10.0 mi NNW 9.2 mph - N/A   Mostly Cloudy
12:35 PM 30.2 °F 20.2 °F 26.6 °F 86% 29.85 in 10.0 mi NNW 12.7 mph - N/A   Overcast
12:54 PM 30.2 °F 20.8 °F 26.6 °F 86% 29.85 in 10.0 mi NW 11.5 mph - N/A   Overcast
1:15 PM 30.2 °F 20.2 °F 26.6 °F 86% 29.85 in 10.0 mi NW 12.7 mph - N/A   Overcast
1:35 PM 30.2 °F 19.3 °F 26.6 °F 86% 29.85 in 10.0 mi NW 15.0 mph - N/A   Overcast
1:54 PM 32.0 °F 22.5 °F 26.6 °F 80% 29.85 in 10.0 mi NW 12.7 mph - N/A Rain Light Rain
2:14 PM 32.0 °F 22.5 °F 26.6 °F 80% 29.85 in 10.0 mi NW 12.7 mph - N/A Rain Light Rain
2:35 PM 32.0 °F 22.1 °F 26.6 °F 80% 29.86 in 10.0 mi NW 13.8 mph 18.4 mph N/A   Overcast
2:54 PM 32.0 °F 21.2 °F 26.6 °F 80% 29.86 in 10.0 mi NW 16.1 mph 20.7 mph N/A Rain Light Rain
3:15 PM 32.0 °F 21.2 °F 26.6 °F 80% 29.86 in 10.0 mi NW 16.1 mph - N/A   Overcast
3:35 PM 32.0 °F 20.8 °F 26.6 °F 80% 29.86 in 10.0 mi NW 17.3 mph - N/A Rain Light Rain
3:54 PM 32.0 °F 21.6 °F 26.6 °F 80% 29.86 in 10.0 mi NW 15.0 mph - N/A Rain Light Rain
4:14 PM 32.0 °F 21.6 °F 26.6 °F 80% 29.87 in 10.0 mi NNW 15.0 mph 21.9 mph N/A   Mostly Cloudy
4:34 PM 32.0 °F 21.2 °F 26.6 °F 80% 29.87 in 10.0 mi NNW 16.1 mph 20.7 mph N/A   Mostly Cloudy
4:54 PM 30.2 °F 18.5 °F 26.6 °F 86% 29.87 in 10.0 mi NW 17.3 mph 24.2 mph N/A   Mostly Cloudy
5:14 PM 30.2 °F 19.3 °F 26.6 °F 86% 29.87 in 10.0 mi NNW 15.0 mph 20.7 mph N/A   Scattered Clouds
5:35 PM 32.0 °F 21.2 °F 26.6 °F 80% 29.88 in 10.0 mi NW 16.1 mph 21.9 mph N/A   Mostly Cloudy
5:55 PM 30.2 °F 20.2 °F 26.6 °F 86% 29.89 in 10.0 mi NW 12.7 mph - N/A   Mostly Cloudy
6:14 PM 30.2 °F 19.3 °F 26.6 °F 86% 29.89 in 10.0 mi NW 15.0 mph - N/A Snow Light Snow
6:34 PM 30.2 °F 20.8 °F 26.6 °F 86% 29.90 in 10.0 mi NW 11.5 mph - N/A   Overcast
6:54 PM 30.2 °F 20.2 °F 26.6 °F 86% 29.90 in 10.0 mi NW 12.7 mph - N/A   Overcast
7:14 PM 28.4 °F 18.5 °F 26.6 °F 93% 29.91 in 5.0 mi NW 11.5 mph - N/A Snow Light Snow
7:34 PM 28.4 °F 18.5 °F 26.6 °F 93% 29.90 in 4.0 mi WNW 11.5 mph - N/A Snow Light Snow
7:55 PM 28.4 °F 18.0 °F 26.6 °F 93% 29.90 in 4.0 mi WNW 12.7 mph - N/A Snow Light Snow
8:14 PM 28.4 °F 19.1 °F 26.6 °F 93% 29.91 in 4.0 mi WNW 10.4 mph - N/A Snow Light Snow
8:34 PM 28.4 °F 19.1 °F 26.6 °F 93% 29.91 in 3.0 mi WNW 10.4 mph - N/A Snow Light Snow
8:55 PM 28.4 °F 19.1 °F 26.6 °F 93% 29.92 in 7.0 mi WNW 10.4 mph - N/A Snow Light Snow
9:14 PM 28.4 °F 19.1 °F 26.6 °F 93% 29.92 in 7.0 mi WNW 10.4 mph - N/A Snow Light Snow
9:34 PM 28.4 °F 18.5 °F 26.6 °F 93% 29.92 in 4.0 mi WNW 11.5 mph - N/A Snow Light Snow
9:54 PM 28.4 °F 19.1 °F 26.6 °F 93% 29.92 in 2.5 mi WNW 10.4 mph - N/A Snow Light Snow
10:14 PM 28.4 °F 19.7 °F 26.6 °F 93% 29.93 in 3.0 mi WNW 9.2 mph - N/A Snow Light Snow
10:34 PM 28.4 °F 20.4 °F 26.6 °F 93% 29.93 in 4.0 mi WNW 8.1 mph - N/A Snow Light Snow
10:54 PM 28.4 °F 19.7 °F 26.6 °F 93% 29.93 in 5.0 mi WNW 9.2 mph - N/A Snow Light Snow
11:14 PM 28.4 °F 19.1 °F 26.6 °F 93% 29.92 in 2.5 mi WNW 10.4 mph - N/A Snow Light Snow
11:34 PM 28.4 °F 19.1 °F 26.6 °F 93% 29.92 in 4.0 mi WNW 10.4 mph - N/A Snow Light Snow
11:54 PM 28.4 °F 19.7 °F 26.6 °F 93% 29.92 in 5.0 mi WNW 9.2 mph - N/A   Overcast